| time (UTC) | temp C | wind direction | speed KPH | gust KPH | rain 1hr cm | rain 24hr cm | rain mn cm | humidity % | barometer mb |
| 20260504081435 | 13 | 191 | 1.6 | 1.6 | 0.00 | 0.00 | 0.00 | 86 | 1016.8 |
| 20260504044425 | 19 | 202 | 0.0 | 0.0 | 0.00 | 0.00 | 0.00 | 64 | 1016.8 |
| 20260504041423 | 20 | 204 | 0.0 | 0.0 | 0.00 | 0.00 | 0.00 | 62 | 1016.7 |
| 20260504034423 | 21 | 208 | 0.0 | 0.0 | 0.00 | 0.00 | 0.00 | 57 | 1016.3 |
| 20260504031422 | 22 | 215 | 1.6 | 1.6 | 0.00 | 0.00 | 0.00 | 52 | 1016.2 |
| 20260504024419 | 23 | 241 | 1.6 | 3.2 | 0.00 | 0.00 | 0.00 | 48 | 1016.1 |
| 20260504021417 | 24 | 225 | 3.2 | 3.2 | 0.00 | 0.00 | 0.00 | 47 | 1016.1 |
| 20260504014413 | 25 | 223 | 1.6 | 1.6 | 0.00 | 0.00 | 0.00 | 47 | 1016.1 |
| 20260504011413 | 26 | 219 | 0.0 | 0.0 | 0.00 | 0.00 | 0.00 | 45 | 1016.4 |
| 20260504004410 | 27 | 247 | 1.6 | 3.2 | 0.00 | 0.00 | 0.00 | 43 | 1016.8 |
| 20260504001410 | 26 | 237 | 0.0 | 1.6 | 0.00 | 0.00 | 0.00 | 47 | 1016.8 |
| 20260503234405 | 26 | 205 | 0.0 | 0.0 | 0.00 | 0.00 | 0.00 | 47 | 1017.2 |
| 20260503231405 | 26 | 271 | 1.6 | 1.6 | 0.00 | 0.00 | 0.00 | 47 | 1017.6 |
| 20260503224402 | 27 | 192 | 3.2 | 3.2 | 0.00 | 0.00 | 0.00 | 44 | 1018.4 |
| 20260503221400 | 28 | 260 | 3.2 | 4.8 | 0.00 | 0.00 | 0.00 | 42 | 1018.5 |
| 20260503214358 | 27 | 236 | 3.2 | 4.8 | 0.00 | 0.00 | 0.00 | 43 | 1018.8 |
| 20260503211353 | 27 | 214 | 3.2 | 3.2 | 0.00 | 0.00 | 0.00 | 43 | 1019.2 |
| 20260503204349 | 28 | 240 | 1.6 | 3.2 | 0.00 | 0.00 | 0.00 | 43 | 1019.5 |
| 20260503201345 | 27 | 242 | 4.8 | 8.0 | 0.00 | 0.00 | 0.00 | 44 | 1019.9 |
| 20260503194343 | 27 | 231 | 4.8 | 4.8 | 0.00 | 0.00 | 0.00 | 45 | 1020.1 |
| 20260503191338 | 25 | 209 | 1.6 | 3.2 | 0.00 | 0.00 | 0.00 | 52 | 1020.6 |
| 20260503184338 | 24 | 262 | 4.8 | 4.8 | 0.00 | 0.00 | 0.00 | 54 | 1020.7 |
| 20260503181333 | 23 | 229 | 1.6 | 3.2 | 0.00 | 0.00 | 0.00 | 57 | 1021.0 |
| 20260503174333 | 22 | 254 | 3.2 | 3.2 | 0.00 | 0.00 | 0.00 | 59 | 1021.4 |
| 20260503171329 | 22 | 217 | 1.6 | 1.6 | 0.00 | 0.00 | 0.00 | 59 | 1021.4 |